FW9532 Weather Reports


time (UTC)temp
C
wind
direction
speed
KPH
gust
KPH
rain 1hr
cm
rain 24hr
cm
rain mn
cm
humidity
%
barometer
mb
20260906225534 36 164 9.7 22.5 0.00 0.00 0.00 46 1011.5
20260906225036 36 101 9.7 20.9 0.00 0.00 0.00 46 1011.6
20260906224605 36 146 8.0 22.5 0.00 0.00 0.00 45 1011.7
20260906224034 36 135 9.7 22.5 0.00 0.00 0.00 45 1011.6
20260906223534 36 83 4.8 24.1 0.00 0.00 0.00 45 1011.7
20260906223052 36 93 9.7 24.1 0.00 0.00 0.00 46 1011.7
20260906222533 36 105 11.3 24.1 0.00 0.00 0.00 46 1011.7
20260906222037 36 160 9.7 19.3 0.00 0.00 0.00 46 1011.7
20260906221552 36 160 9.7 22.5 0.00 0.00 0.00 46 1011.7
20260906221031 36 217 9.7 22.5 0.00 0.00 0.00 46 1011.6
20260906220530 36 162 11.3 22.5 0.00 0.00 0.00 47 1011.7
20260906220121 36 139 9.7 19.3 0.00 0.00 0.00 47 1011.6
20260906215531 36 117 8.0 17.7 0.00 0.00 0.00 47 1011.7
20260906215031 36 126 6.4 16.1 0.00 0.00 0.00 47 1011.7
20260906214558 36 69 9.7 19.3 0.00 0.00 0.00 46 1011.7
20260906214031 36 122 6.4 22.5 0.00 0.00 0.00 47 1011.7
20260906213531 36 123 11.3 22.5 0.00 0.00 0.00 46 1011.7
20260906213058 36 151 8.0 22.5 0.00 0.00 0.00 45 1011.8
20260906212530 36 231 6.4 17.7 0.00 0.00 0.00 47 1011.9
20260906212126 36 132 6.4 19.3 0.00 0.00 0.00 47 1012.0
20260906211610 36 118 8.0 19.3 0.00 0.00 0.00 46 1012.1
20260906211035 36 135 4.8 17.7 0.00 0.00 0.00 47 1012.1
20260906210536 36 36 8.0 19.3 0.00 0.00 0.00 46 1012.1
20260906210111 36 119 11.3 19.3 0.00 0.00 0.00 46 1012.2
20260906205535 36 0 6.4 25.7 0.00 0.00 0.00 46 1012.2
20260906205036 36 114 11.3 25.7 0.00 0.00 0.00 47 1012.2
20260906204554 36 117 6.4 29.0 0.00 0.00 0.00 46 1012.3
20260906204036 36 125 9.7 29.0 0.00 0.00 0.00 46 1012.3
20260906203535 36 147 11.3 25.7 0.00 0.00 0.00 45 1012.5
20260906203101 36 92 6.4 25.7 0.00 0.00 0.00 46 1012.4
20260906202535 36 136 6.4 25.7 0.00 0.00 0.00 47 1012.5
20260906202035 36 146 12.9 25.7 0.00 0.00 0.00 46 1012.7
20260906201558 36 73 4.8 20.9 0.00 0.00 0.00 46 1012.7
20260906201035 36 131 11.3 20.9 0.00 0.00 0.00 46 1012.7
20260906200535 36 77 8.0 17.7 0.00 0.00 0.00 45 1012.8
20260906200057 36 129 11.3 17.7 0.00 0.00 0.00 46 1012.9
20260906195536 36 93 6.4 16.1 0.00 0.00 0.00 47 1012.9
20260906195036 36 47 8.0 16.1 0.00 0.00 0.00 47 1012.9
20260906194615 36 108 8.0 14.5 0.00 0.00 0.00 46 1013.0
20260906194036 36 133 4.8 17.7 0.00 0.00 0.00 47 1013.0
20260906193536 36 127 6.4 17.7 0.00 0.00 0.00 46 1013.1
20260906193104 36 131 6.4 17.7 0.00 0.00 0.00 46 1013.1
20260906192535 36 226 8.0 14.5 0.00 0.00 0.00 47 1013.3
20260906192036 36 128 6.4 14.5 0.00 0.00 0.00 48 1013.4
20260906191548 36 169 4.8 24.1 0.00 0.00 0.00 48 1013.4
20260906191035 36 121 11.3 24.1 0.00 0.00 0.00 47 1013.5
20260906190536 35 127 11.3 20.9 0.00 0.00 0.00 48 1013.5
20260906185535 36 126 11.3 17.7 0.00 0.00 0.00 46 1013.6
20260906185038 36 138 4.8 24.1 0.00 0.00 0.00 47 1013.7
20260906184607 36 146 8.0 24.1 0.00 0.00 0.00 47 1013.6
20260906184039 36 159 12.9 24.1 0.00 0.00 0.00 48 1013.7
20260906183536 35 151 6.4 19.3 0.00 0.00 0.00 49 1013.6
20260906183101 35 110 12.9 19.3 0.00 0.00 0.00 48 1013.7
20260906182535 36 141 9.7 16.1 0.00 0.00 0.00 49 1013.9
20260906182038 35 175 6.4 14.5 0.00 0.00 0.00 50 1014.0
20260906181600 35 153 4.8 19.3 0.00 0.00 0.00 51 1014.1
20260906181030 35 58 6.4 22.5 0.00 0.00 0.00 50 1014.2
20260906180535 35 131 12.9 22.5 0.00 0.00 0.00 50 1014.3
20260906180048 35 145 8.0 19.3 0.00 0.00 0.00 51 1014.3
20260906175531 35 103 8.0 20.9 0.00 0.00 0.00 51 1014.3
20260906175037 35 70 11.3 20.9 0.00 0.00 0.00 51 1014.5
20260906174555 35 122 8.0 20.9 0.00 0.00 0.00 51 1014.6
20260906174034 35 165 11.3 20.9 0.00 0.00 0.00 52 1014.6
20260906173531 35 175 9.7 25.7 0.00 0.00 0.00 52 1014.6
20260906173052 35 186 12.9 25.7 0.00 0.00 0.00 52 1014.7
20260906172531 35 105 16.1 25.7 0.00 0.00 0.00 52 1014.8
20260906172030 35 168 4.8 19.3 0.00 0.00 0.00 52 1014.7
20260906171607 35 102 11.3 19.3 0.00 0.00 0.00 53 1014.8
20260906171034 34 156 6.4 17.7 0.00 0.00 0.00 54 1014.9
20260906170530 34 139 6.4 19.3 0.00 0.00 0.00 54 1015.0
20260906170059 34 103 11.3 19.3 0.00 0.00 0.00 53 1015.1
20260906165531 34 225 9.7 17.7 0.00 0.00 0.00 54 1015.2
20260906165036 34 152 4.8 14.5 0.00 0.00 0.00 55 1015.1
20260906164559 33 108 6.4 14.5 0.00 0.00 0.00 56 1015.3
20260906164036 33 108 6.4 14.5 0.00 0.00 0.00 54 1015.3
20260906163532 33 160 6.4 16.1 0.00 0.00 0.00 55 1015.2
20260906163054 33 89 8.0 16.1 0.00 0.00 0.00 56 1015.1
20260906162534 33 89 9.7 16.1 0.00 0.00 0.00 56 1015.1
20260906162030 33 89 8.0 16.1 0.00 0.00 0.00 56 1015.1
20260906161559 33 156 4.8 14.5 0.00 0.00 0.00 57 1015.0
20260906161033 33 77 8.0 17.7 0.00 0.00 0.00 57 1015.0
20260906160533 33 83 8.0 17.7 0.00 0.00 0.00 57 1015.0
20260906160059 33 110 4.8 16.1 0.00 0.00 0.00 57 1015.0
20260906155535 32 95 8.0 16.1 0.00 0.00 0.00 57 1015.0
20260906155034 32 128 8.0 14.5 0.00 0.00 0.00 58 1015.0
20260906154555 32 188 4.8 12.9 0.00 0.00 0.00 58 1015.0
20260906154036 32 176 8.0 14.5 0.00 0.00 0.00 59 1015.0
20260906153534 32 113 9.7 14.5 0.00 0.00 0.00 59 1015.0
20260906153049 32 53 1.6 11.3 0.00 0.00 0.00 60 1015.0
20260906152533 32 113 1.6 9.7 0.00 0.00 0.00 60 1014.9
20260906152033 32 15 6.4 9.7 0.00 0.00 0.00 61 1014.9
20260906151549 32 102 3.2 9.7 0.00 0.00 0.00 62 1014.9
20260906151033 31 173 3.2 9.7 0.00 0.00 0.00 64 1014.9
20260906150533 31 113 1.6 8.0 0.00 0.00 0.00 64 1014.8
20260906150104 31 330 1.6 6.4 0.00 0.00 0.00 67 1014.9
20260906145533 31 16 3.2 6.4 0.00 0.00 0.00 65 1014.7
20260906145034 31 126 3.2 4.8 0.00 0.00 0.00 68 1014.9
20260906144602 31 176 0.0 8.0 0.00 0.00 0.00 69 1014.8
20260906144033 30 337 0.0 8.0 0.00 0.00 0.00 71 1014.7
20260906143535 30 65 0.0 6.4 0.00 0.00 0.00 72 1014.8
20260906143051 30 73 1.6 6.4 0.00 0.00 0.00 73 1014.9
20260906142533 29 113 1.6 6.4 0.00 0.00 0.00 76 1015.0
20260906142034 29 39 3.2 6.4 0.00 0.00 0.00 77 1015.1
20260906141549 28 34 1.6 6.4 0.00 0.00 0.00 77 1015.1
20260906141036 28 40 3.2 6.4 0.00 0.00 0.00 78 1015.1
20260906140535 28 59 1.6 6.4 0.00 0.00 0.00 78 1015.0
20260906140107 28 49 3.2 6.4 0.00 0.00 0.00 79 1015.1
20260906135534 28 72 3.2 6.4 0.00 0.00 0.00 81 1015.0
20260906135033 27 81 3.2 6.4 0.00 0.00 0.00 81 1014.9
20260906134550 28 76 3.2 4.8 0.00 0.00 0.00 81 1015.0
20260906134034 27 75 1.6 3.2 0.00 0.00 0.00 82 1015.0
20260906133532 27 86 0.0 4.8 0.00 0.00 0.00 83 1015.0
20260906133050 27 80 1.6 4.8 0.00 0.00 0.00 84 1015.1
20260906132534 27 58 1.6 4.8 0.00 0.00 0.00 85 1015.0
20260906132034 27 95 1.6 4.8 0.00 0.00 0.00 85 1015.0
20260906131549 26 80 1.6 4.8 0.00 0.00 0.00 86 1015.0
20260906131034 26 106 1.6 4.8 0.00 0.00 0.00 86 1015.1
20260906130533 26 70 1.6 3.2 0.00 0.00 0.00 86 1014.9
20260906130057 26 69 0.0 3.2 0.00 0.00 0.00 87 1014.7
20260906125537 26 72 0.0 3.2 0.00 0.00 0.00 88 1014.8
20260906125035 25 69 0.0 3.2 0.00 0.00 0.00 89 1014.8
20260906124552 25 62 0.0 3.2 0.00 0.00 0.00 89 1014.7
20260906124034 25 60 0.0 1.6 0.00 0.00 0.00 89 1014.7
20260906123534 25 67 0.0 1.6 0.00 0.00 0.00 90 1014.6
20260906123050 25 65 0.0 1.6 0.00 0.00 0.00 91 1014.5
20260906122535 24 0 0.0 1.6 0.00 0.00 0.00 92 1014.5
20260906122031 24 0 0.0 1.6 0.00 0.00 0.00 92 1014.5
20260906121557 24 53 0.0 1.6 0.00 0.00 0.00 92 1014.5
20260906121033 24 71 0.0 1.6 0.00 0.00 0.00 92 1014.4
20260906120532 24 70 0.0 1.6 0.00 0.00 0.00 92 1014.3
20260906120106 24 0 0.0 1.6 0.00 0.00 0.00 92 1014.2
20260906115536 24 70 0.0 1.6 0.00 0.00 0.00 91 1014.3
20260906115033 24 0 0.0 1.6 0.00 0.00 0.00 91 1014.3
20260906114552 25 0 0.0 1.6 0.00 0.00 0.00 91 1014.3
20260906114034 25 0 0.0 3.2 0.00 0.00 0.00 91 1014.3
20260906113534 25 0 0.0 3.2 0.00 0.00 0.00 91 1014.2
20260906113058 25 0 0.0 3.2 0.00 0.00 0.00 91 1014.3
20260906112533 25 122 0.0 1.6 0.00 0.00 0.00 91 1014.1
20260906112031 25 122 0.0 1.6 0.00 0.00 0.00 90 1014.1
20260906111550 25 0 0.0 1.6 0.00 0.00 0.00 90 1014.0
20260906111034 25 0 0.0 1.6 0.00 0.00 0.00 90 1014.0
20260906110534 25 0 0.0 1.6 0.00 0.00 0.00 90 1014.0
20260906110055 25 0 0.0 1.6 0.00 0.00 0.00 90 1013.9
20260906105534 25 122 0.0 1.6 0.00 0.00 0.00 90 1014.0
20260906105034 25 0 0.0 1.6 0.00 0.00 0.00 90 1013.8
20260906104608 25 0 0.0 1.6 0.00 0.00 0.00 90 1013.6
20260906104034 25 128 0.0 1.6 0.00 0.00 0.00 89 1013.7
20260906103533 25 128 0.0 1.6 0.00 0.00 0.00 89 1013.6
20260906103058 25 144 0.0 1.6 0.00 0.00 0.00 89 1013.6
20260906102536 25 0 0.0 3.2 0.00 0.00 0.00 89 1013.5
20260906102034 25 0 0.0 3.2 0.00 0.00 0.00 89 1013.5
20260906101556 25 0 0.0 3.2 0.00 0.00 0.00 89 1013.6
20260906101034 25 115 0.0 3.2 0.00 0.00 0.00 89 1013.6
20260906100534 25 117 0.0 1.6 0.00 0.00 0.00 88 1013.6
20260906100054 25 112 0.0 0.0 0.00 0.00 0.00 88 1013.7
20260906095534 25 0 0.0 0.0 0.00 0.00 0.00 87 1013.6
20260906095033 25 0 0.0 0.0 0.00 0.00 0.00 87 1013.6
20260906094622 25 0 0.0 0.0 0.00 0.00 0.00 87 1013.5
20260906094034 25 0 0.0 0.0 0.00 0.00 0.00 87 1013.5
20260906093534 25 0 0.0 1.6 0.00 0.00 0.00 87 1013.4
20260906093101 25 0 0.0 1.6 0.00 0.00 0.00 87 1013.4
20260906092534 25 139 0.0 1.6 0.00 0.00 0.00 87 1013.3
20260906092035 25 0 0.0 1.6 0.00 0.00 0.00 86 1013.3
20260906091602 25 0 0.0 1.6 0.00 0.00 0.00 86 1013.3
20260906091036 25 136 0.0 1.6 0.00 0.00 0.00 86 1013.3
20260906090535 25 0 0.0 1.6 0.00 0.00 0.00 86 1013.2
20260906090056 26 0 0.0 3.2 0.00 0.00 0.00 86 1013.3
20260906085534 26 0 0.0 4.8 0.00 0.00 0.00 85 1013.2
20260906085035 26 159 1.6 6.4 0.00 0.00 0.00 85 1013.2
20260906084550 26 0 3.2 6.4 0.00 0.00 0.00 85 1013.0
20260906084035 26 149 3.2 6.4 0.00 0.00 0.00 84 1013.1
20260906083535 26 136 3.2 6.4 0.00 0.00 0.00 84 1013.0
20260906083059 26 103 1.6 3.2 0.00 0.00 0.00 84 1013.0
20260906082534 26 128 0.0 4.8 0.00 0.00 0.00 84 1013.0
20260906082034 26 127 0.0 4.8 0.00 0.00 0.00 83 1012.9
20260906081557 26 143 3.2 8.0 0.00 0.00 0.00 83 1013.0
20260906081034 26 149 0.0 8.0 0.00 0.00 0.00 83 1013.0
20260906080535 26 153 3.2 8.0 0.00 0.00 0.00 83 1013.1
20260906080056 26 172 0.0 4.8 0.00 0.00 0.00 82 1013.0
20260906075535 26 0 0.0 4.8 0.00 0.00 0.00 82 1012.9
20260906075034 26 0 0.0 4.8 0.00 0.00 0.00 82 1012.8
20260906074555 26 191 3.2 6.4 0.00 0.00 0.00 81 1012.8
20260906074033 26 182 1.6 6.4 0.00 0.00 0.00 81 1012.9
20260906073535 26 200 1.6 4.8 0.00 0.00 0.00 81 1012.9
20260906073057 26 163 1.6 6.4 0.00 0.00 0.00 80 1012.9
20260906072531 26 147 0.0 9.7 0.00 0.00 0.00 80 1012.9
20260906072034 26 164 3.2 9.7 0.00 0.00 0.00 80 1013.0
20260906071555 26 158 3.2 9.7 0.00 0.00 0.00 80 1013.1
20260906071036 26 168 1.6 6.4 0.00 0.00 0.00 79 1013.1
20260906070534 27 195 1.6 6.4 0.00 0.00 0.00 79 1013.2
20260906070057 27 168 3.2 4.8 0.00 0.00 0.00 79 1013.3
20260906065535 27 163 1.6 4.8 0.00 0.00 0.00 79 1013.4
20260906065035 27 168 1.6 6.4 0.00 0.00 0.00 79 1013.4
20260906064551 27 0 1.6 9.7 0.00 0.00 0.00 78 1013.4
20260906064035 27 159 1.6 9.7 0.00 0.00 0.00 78 1013.4
20260906063530 27 171 4.8 9.7 0.00 0.00 0.00 78 1013.4
20260906063057 27 159 4.8 14.5 0.00 0.00 0.00 78 1013.4
20260906062530 27 153 4.8 14.5 0.00 0.00 0.00 78 1013.3
20260906062034 27 117 8.0 14.5 0.00 0.00 0.00 78 1013.3
20260906061600 27 129 4.8 8.0 0.00 0.00 0.00 78 1013.2
20260906061034 27 140 3.2 8.0 0.00 0.00 0.00 77 1013.0
20260906060534 27 139 3.2 9.7 0.00 0.00 0.00 77 1013.1
20260906060058 27 137 4.8 9.7 0.00 0.00 0.00 77 1013.1
20260906055534 27 139 4.8 9.7 0.00 0.00 0.00 77 1013.2
20260906055031 27 136 4.8 9.7 0.00 0.00 0.00 77 1013.4
20260906054551 27 163 1.6 6.4 0.00 0.00 0.00 77 1013.4
20260906054034 27 137 0.0 6.4 0.00 0.00 0.00 77 1013.4
20260906053531 27 136 3.2 6.4 0.00 0.00 0.00 76 1013.3
20260906053050 27 238 0.0 3.2 0.00 0.00 0.00 76 1013.3
20260906052531 27 170 0.0 3.2 0.00 0.00 0.00 76 1013.3
20260906052031 28 239 0.0 4.8 0.00 0.00 0.00 76 1013.3
20260906051546 28 0 0.0 4.8 0.00 0.00 0.00 76 1013.2
20260906051031 28 160 1.6 8.0 0.00 0.00 0.00 76 1013.2
20260906050534 28 163 3.2 8.0 0.00 0.00 0.00 75 1013.2
20260906050115 28 166 1.6 4.8 0.00 0.00 0.00 75 1013.2
20260906045534 28 193 0.0 6.4 0.00 0.00 0.00 75 1013.2
20260906045034 28 161 1.6 6.4 0.00 0.00 0.00 75 1013.4
20260906044554 28 155 3.2 6.4 0.00 0.00 0.00 74 1013.4
20260906044034 28 138 3.2 6.4 0.00 0.00 0.00 74 1013.5
20260906043531 28 170 1.6 6.4 0.00 0.00 0.00 74 1013.5
20260906043049 28 111 3.2 6.4 0.00 0.00 0.00 73 1013.6
20260906042534 28 147 1.6 8.0 0.00 0.00 0.00 73 1013.4
20260906042034 28 144 4.8 8.0 0.00 0.00 0.00 73 1013.2
20260906041558 28 142 3.2 8.0 0.00 0.00 0.00 72 1013.3
20260906041035 28 136 4.8 8.0 0.00 0.00 0.00 72 1013.4
20260906040537 28 136 3.2 9.7 0.00 0.00 0.00 72 1013.3
20260906040125 28 136 4.8 9.7 0.00 0.00 0.00 71 1013.3
20260906035539 28 124 4.8 9.7 0.00 0.00 0.00 71 1013.2
20260906035037 29 151 3.2 8.0 0.00 0.00 0.00 70 1013.2
20260906034601 29 0 1.6 8.0 0.00 0.00 0.00 70 1013.4
20260906034033 29 237 3.2 6.4 0.00 0.00 0.00 69 1013.3
20260906033533 29 219 1.6 4.8 0.00 0.00 0.00 68 1013.2
20260906033049 29 0 0.0 4.8 0.00 0.00 0.00 67 1013.2
20260906032533 29 162 1.6 4.8 0.00 0.00 0.00 67 1013.4
20260906032031 29 165 1.6 4.8 0.00 0.00 0.00 67 1013.4
20260906031601 30 137 1.6 4.8 0.00 0.00 0.00 66 1013.3
20260906031034 30 145 1.6 8.0 0.00 0.00 0.00 66 1013.4
20260906030534 30 150 1.6 9.7 0.00 0.00 0.00 66 1013.4
20260906030053 30 187 3.2 11.3 0.00 0.00 0.00 65 1013.4
20260906025534 30 193 4.8 14.5 0.00 0.00 0.00 65 1013.4
20260906025031 30 169 3.2 14.5 0.00 0.00 0.00 64 1013.4
20260906024550 30 158 8.0 14.5 0.00 0.00 0.00 64 1013.4
20260906024035 30 117 6.4 14.5 0.00 0.00 0.00 64 1013.1
20260906023534 30 179 8.0 14.5 0.00 0.00 0.00 64 1012.9
20260906023050 30 141 6.4 12.9 0.00 0.00 0.00 64 1012.8
20260906022534 30 168 6.4 16.1 0.00 0.00 0.00 63 1012.8
20260906022038 30 164 6.4 16.1 0.00 0.00 0.00 63 1012.7
20260906021600 30 200 8.0 17.7 0.00 0.00 0.00 63 1012.6
20260906021033 31 215 6.4 17.7 0.00 0.00 0.00 62 1012.5
20260906020534 31 178 8.0 17.7 0.00 0.00 0.00 62 1012.4
20260906020100 31 139 8.0 17.7 0.00 0.00 0.00 62 1012.4
20260906015534 31 147 1.6 11.3 0.00 0.00 0.00 62 1012.3
20260906015034 31 156 4.8 12.9 0.00 0.00 0.00 61 1012.3
20260906014559 31 144 8.0 14.5 0.00 0.00 0.00 61 1012.2
20260906014033 31 167 6.4 16.1 0.00 0.00 0.00 60 1012.2
20260906013534 31 165 6.4 16.1 0.00 0.00 0.00 59 1012.2
20260906013052 32 113 8.0 19.3 0.00 0.00 0.00 59 1012.1
20260906012533 32 137 9.7 27.4 0.00 0.00 0.00 59 1012.2
20260906012034 32 161 12.9 27.4 0.00 0.00 0.00 58 1012.1
20260906011551 32 129 9.7 24.1 0.00 0.00 0.00 58 1012.0
20260906011037 32 139 12.9 24.1 0.00 0.00 0.00 57 1011.9
20260906010533 33 122 14.5 27.4 0.00 0.00 0.00 56 1011.8
20260906010056 33 128 14.5 27.4 0.00 0.00 0.00 52 1011.8
20260906005530 34 109 1.6 4.8 0.00 0.00 0.00 47 1011.6
20260906005033 34 157 1.6 8.0 0.00 0.00 0.00 47 1011.5
20260906004600 35 131 3.2 9.7 0.00 0.00 0.00 47 1011.5
20260906004033 35 251 4.8 9.7 0.00 0.00 0.00 46 1011.4
20260906003534 35 119 4.8 9.7 0.00 0.00 0.00 46 1011.4
20260906003053 35 155 6.4 9.7 0.00 0.00 0.00 46 1011.4
20260906002534 35 156 6.4 14.5 0.00 0.00 0.00 46 1011.5
20260906002031 35 204 6.4 14.5 0.00 0.00 0.00 46 1011.5
20260906001600 36 148 4.8 11.3 0.00 0.00 0.00 45 1011.5
20260906001030 36 122 4.8 9.7 0.00 0.00 0.00 45 1011.5
20260906000534 36 174 4.8 12.9 0.00 0.00 0.00 45 1011.5
20260906000100 36 103 4.8 12.9 0.00 0.00 0.00 45 1011.4
20260905235534 36 110 6.4 11.3 0.00 0.00 0.00 44 1011.5
20260905235034 36 141 4.8 9.7 0.00 0.00 0.00 44 1011.4
20260905234558 36 246 0.0 9.7 0.00 0.00 0.00 45 1011.4
20260905234035 36 134 4.8 14.5 0.00 0.00 0.00 44 1011.3
20260905233534 36 122 6.4 16.1 0.00 0.00 0.00 44 1011.3
20260905233100 36 120 8.0 16.1 0.00 0.00 0.00 44 1011.3
20260905232534 37 143 3.2 12.9 0.00 0.00 0.00 43 1011.2
20260905232034 37 153 3.2 11.3 0.00 0.00 0.00 43 1011.3
20260905231549 37 248 3.2 11.3 0.00 0.00 0.00 43 1011.3
20260905231033 36 224 0.0 9.7 0.00 0.00 0.00 44 1011.4
20260905230534 36 155 4.8 12.9 0.00 0.00 0.00 44 1011.4
20260905230103 36 103 6.4 12.9 0.00 0.00 0.00 44 1011.4